Time,TemperatureF,DewpointF,PressureIn,WindDirection,WindDirectionDegrees,WindSpeedMPH,WindSpeedGustMPH,Humidity,HourlyPrecipIn,Conditions,Clouds,dailyrainin,SoftwareType,DateUTC
2014-01-09 00:00:00,71.0,67.9,30.22,NE,45,7.0,-999.0,90,0.00,,,0.00,Wunderground v.1.15,2014-01-09 05:00:00,
2014-01-09 00:05:00,71.0,67.9,30.22,NE,45,7.0,-999.0,90,0.00,,,0.00,Wunderground v.1.15,2014-01-09 05:05:00,
2014-01-09 00:10:00,71.0,67.9,30.21,ENE,68,5.0,-999.0,90,0.00,,,0.00,Wunderground v.1.15,2014-01-09 05:10:00,
2014-01-09 00:15:00,70.9,67.8,30.21,ENE,68,7.0,-999.0,90,0.00,,,0.00,Wunderground v.1.15,2014-01-09 05:15:00,
2014-01-09 00:20:00,70.6,67.5,30.21,ENE,68,7.0,-999.0,90,0.00,,,0.00,Wunderground v.1.15,2014-01-09 05:20:00,
2014-01-09 00:25:00,70.6,67.8,30.20,ENE,68,6.0,-999.0,91,0.00,,,0.00,Wunderground v.1.15,2014-01-09 05:25:00,
2014-01-09 00:30:00,70.7,67.9,30.20,East,90,7.0,-999.0,91,0.00,,,0.00,Wunderground v.1.15,2014-01-09 05:30:00,
2014-01-09 00:43:00,70.7,67.9,30.20,ENE,68,5.0,-999.0,91,0.00,,,0.00,Wunderground v.1.15,2014-01-09 05:43:00,
2014-01-09 00:50:00,71.0,68.2,30.20,SSE,159,6.0,9.0,91,0.00,,,0.00,Wunderground v.1.15,2014-01-09 05:50:00,
2014-01-09 00:55:00,71.2,68.4,30.20,ESE,122,7.0,7.0,91,0.00,,,0.00,Wunderground v.1.15,2014-01-09 05:55:00,
2014-01-09 01:00:00,71.2,68.4,30.20,ESE,117,6.0,6.0,91,0.00,,,0.00,Wunderground v.1.15,2014-01-09 06:00:00,
2014-01-09 01:10:00,71.2,68.4,30.19,ESE,108,6.0,6.0,91,0.00,,,0.00,Wunderground v.1.15,2014-01-09 06:10:00,
2014-01-09 01:15:00,71.2,68.4,30.19,ESE,107,6.0,6.0,91,0.00,,,0.00,Wunderground v.1.15,2014-01-09 06:15:00,
2014-01-09 01:20:00,71.0,68.2,30.19,ENE,77,6.0,6.0,91,0.00,,,0.00,Wunderground v.1.15,2014-01-09 06:20:00,
2014-01-09 01:30:00,71.0,68.2,30.18,SE,146,7.0,10.0,91,0.00,,,0.00,Wunderground v.1.15,2014-01-09 06:30:00,
2014-01-09 01:35:00,71.1,68.3,30.18,ESE,123,6.0,10.0,91,0.00,,,0.00,Wunderground v.1.15,2014-01-09 06:35:00,
2014-01-09 01:40:00,71.0,68.6,30.18,NE,49,6.0,6.0,92,0.00,,,0.00,Wunderground v.1.15,2014-01-09 06:40:00,
2014-01-09 01:45:00,70.9,68.5,30.18,ENE,64,6.0,8.0,92,0.00,,,0.00,Wunderground v.1.15,2014-01-09 06:45:00,
2014-01-09 01:55:00,70.8,68.7,30.17,East,82,6.0,6.0,93,0.00,,,0.00,Wunderground v.1.15,2014-01-09 06:55:00,
2014-01-09 02:00:00,70.8,68.7,30.17,SE,125,7.0,8.0,93,0.00,,,0.00,Wunderground v.1.15,2014-01-09 07:00:00,
2014-01-09 02:10:00,70.7,68.9,30.17,East,90,6.0,6.0,94,0.00,,,0.00,Wunderground v.1.15,2014-01-09 07:10:00,
2014-01-09 02:15:00,70.6,68.5,30.17,NE,37,7.0,7.0,93,0.00,,,0.00,Wunderground v.1.15,2014-01-09 07:15:00,
2014-01-09 02:25:00,70.7,68.9,30.17,SE,135,5.0,10.0,94,0.00,,,0.00,Wunderground v.1.15,2014-01-09 07:25:00,
2014-01-09 02:30:00,70.7,68.9,30.17,NE,44,6.0,6.0,94,0.00,,,0.00,Wunderground v.1.15,2014-01-09 07:30:00,
2014-01-09 02:35:00,70.7,68.9,30.17,SE,134,7.0,7.0,94,0.00,,,0.00,Wunderground v.1.15,2014-01-09 07:35:00,
2014-01-09 02:40:00,70.7,68.9,30.17,NE,44,6.0,6.0,94,0.00,,,0.00,Wunderground v.1.15,2014-01-09 07:40:00,
2014-01-09 02:45:00,70.7,68.9,30.17,NE,51,5.0,6.0,94,0.00,,,0.01,Wunderground v.1.15,2014-01-09 07:45:00,
2014-01-09 02:50:00,70.7,68.9,30.17,ESE,117,6.0,6.0,94,0.00,,,0.01,Wunderground v.1.15,2014-01-09 07:50:00,
2014-01-09 03:00:00,70.6,68.8,30.17,NE,46,5.0,6.0,94,0.06,,,0.02,Wunderground v.1.15,2014-01-09 08:00:00,
2014-01-09 03:10:00,70.4,68.9,30.17,East,95,6.0,6.0,95,0.00,,,0.02,Wunderground v.1.15,2014-01-09 08:10:00,
2014-01-09 03:15:00,70.5,69.0,30.18,ENE,62,5.0,6.0,95,0.00,,,0.03,Wunderground v.1.15,2014-01-09 08:15:00,
2014-01-09 03:20:00,70.5,69.0,30.17,NE,35,5.0,9.0,95,0.08,,,0.04,Wunderground v.1.15,2014-01-09 08:20:00,
2014-01-09 03:30:00,70.6,69.1,30.17,NNE,30,5.0,5.0,95,0.05,,,0.04,Wunderground v.1.15,2014-01-09 08:30:00,
2014-01-09 03:35:00,70.6,69.1,30.17,ESE,116,5.0,5.0,95,0.05,,,0.05,Wunderground v.1.15,2014-01-09 08:35:00,
2014-01-09 03:40:00,70.5,69.0,30.17,ENE,70,6.0,6.0,95,0.05,,,0.05,Wunderground v.1.15,2014-01-09 08:40:00,
2014-01-09 03:45:00,70.5,69.3,30.17,East,90,6.0,6.0,96,0.04,,,0.05,Wunderground v.1.15,2014-01-09 08:45:00,
2014-01-09 03:50:00,70.6,69.4,30.17,East,89,6.0,7.0,96,0.00,,,0.05,Wunderground v.1.15,2014-01-09 08:50:00,
2014-01-09 04:00:00,70.8,69.6,30.17,SSE,167,5.0,5.0,96,0.00,,,0.05,Wunderground v.1.15,2014-01-09 09:00:00,
2014-01-09 04:10:00,70.9,69.7,30.17,East,92,4.0,4.0,96,0.00,,,0.06,Wunderground v.1.15,2014-01-09 09:10:00,
2014-01-09 04:15:00,70.9,69.7,30.17,ENE,58,6.0,6.0,96,0.06,,,0.07,Wunderground v.1.15,2014-01-09 09:15:00,
2014-01-09 04:25:00,70.7,69.5,30.17,NE,49,6.0,8.0,96,0.05,,,0.07,Wunderground v.1.15,2014-01-09 09:25:00,
2014-01-09 04:35:00,70.7,69.2,30.16,ESE,123,5.0,9.0,95,0.00,,,0.08,Wunderground v.1.15,2014-01-09 09:35:00,
2014-01-09 04:40:00,70.7,69.2,30.16,ESE,113,6.0,6.0,95,0.00,,,0.08,Wunderground v.1.15,2014-01-09 09:40:00,
2014-01-09 04:45:00,70.9,69.4,30.16,ESE,111,6.0,6.0,95,0.00,,,0.08,Wunderground v.1.15,2014-01-09 09:45:00,
2014-01-09 04:50:00,71.0,69.5,30.16,NE,53,5.0,5.0,95,0.00,,,0.08,Wunderground v.1.15,2014-01-09 09:50:00,
2014-01-09 05:00:00,71.0,69.5,30.16,NE,56,6.0,6.0,95,0.00,,,0.08,Wunderground v.1.15,2014-01-09 10:00:00,
2014-01-09 05:10:00,71.1,69.6,30.16,East,101,5.0,5.0,95,0.00,,,0.08,Wunderground v.1.15,2014-01-09 10:10:00,
2014-01-09 05:15:00,71.3,69.8,30.16,East,86,6.0,6.0,95,0.00,,,0.08,Wunderground v.1.15,2014-01-09 10:15:00,
2014-01-09 05:20:00,71.4,69.9,30.17,NE,46,6.0,6.0,95,0.00,,,0.08,Wunderground v.1.15,2014-01-09 10:20:00,
2014-01-09 05:25:00,71.6,69.8,30.16,East,94,5.0,14.0,94,0.00,,,0.08,Wunderground v.1.15,2014-01-09 10:25:00,
2014-01-09 05:30:00,71.6,69.8,30.17,ESE,120,5.0,5.0,94,0.00,,,0.08,Wunderground v.1.15,2014-01-09 10:30:00,
2014-01-09 05:35:00,71.8,70.0,30.17,South,169,6.0,6.0,94,0.00,,,0.08,Wunderground v.1.15,2014-01-09 10:35:00,
2014-01-09 05:40:00,71.9,70.1,30.17,ENE,76,6.0,6.0,94,0.00,,,0.08,Wunderground v.1.15,2014-01-09 10:40:00,
2014-01-09 05:50:00,72.1,70.0,30.17,ENE,64,5.0,6.0,93,0.00,,,0.08,Wunderground v.1.15,2014-01-09 10:50:00,
2014-01-09 06:00:00,72.2,70.1,30.17,North,9,6.0,6.0,93,0.00,,,0.08,Wunderground v.1.15,2014-01-09 11:00:00,
2014-01-09 06:10:00,72.3,70.2,30.16,ENE,61,5.0,7.0,93,0.00,,,0.08,Wunderground v.1.15,2014-01-09 11:10:00,
2014-01-09 06:15:00,72.3,69.8,30.17,ENE,57,5.0,7.0,92,0.00,,,0.08,Wunderground v.1.15,2014-01-09 11:15:00,
2014-01-09 06:20:00,72.4,69.9,30.17,SSW,207,4.0,8.0,92,0.00,,,0.08,Wunderground v.1.15,2014-01-09 11:20:00,
2014-01-09 06:25:00,72.5,70.0,30.17,East,82,5.0,8.0,92,0.00,,,0.08,Wunderground v.1.15,2014-01-09 11:25:00,
2014-01-09 06:30:00,72.5,70.0,30.17,ENE,60,5.0,7.0,92,0.00,,,0.08,Wunderground v.1.15,2014-01-09 11:30:00,
2014-01-09 06:40:00,72.4,69.9,30.18,ESE,123,5.0,5.0,92,0.00,,,0.08,Wunderground v.1.15,2014-01-09 11:40:00,
2014-01-09 06:45:00,72.5,70.0,30.18,ENE,76,6.0,6.0,92,0.00,,,0.08,Wunderground v.1.15,2014-01-09 11:45:00,
2014-01-09 06:50:00,72.3,70.2,30.18,NE,51,5.0,5.0,93,0.00,,,0.08,Wunderground v.1.15,2014-01-09 11:50:00,
2014-01-09 06:55:00,72.3,69.8,30.18,SSE,150,5.0,5.0,92,0.00,,,0.08,Wunderground v.1.15,2014-01-09 11:55:00,
2014-01-09 07:00:00,72.5,70.4,30.18,NE,53,6.0,8.0,93,0.00,,,0.08,Wunderground v.1.15,2014-01-09 12:00:00,
2014-01-09 07:10:00,72.6,70.1,30.18,NE,49,6.0,9.0,92,0.00,,,0.08,Wunderground v.1.15,2014-01-09 12:10:00,
2014-01-09 07:15:00,72.7,70.2,30.18,ESE,109,5.0,9.0,92,0.00,,,0.08,Wunderground v.1.15,2014-01-09 12:15:00,
2014-01-09 07:20:00,72.8,70.3,30.18,ENE,61,5.0,5.0,92,0.00,,,0.08,Wunderground v.1.15,2014-01-09 12:20:00,
2014-01-09 07:25:00,72.8,70.3,30.19,NE,56,5.0,5.0,92,0.00,,,0.08,Wunderground v.1.15,2014-01-09 12:25:00,
2014-01-09 07:30:00,72.8,70.3,30.19,ENE,60,6.0,6.0,92,0.00,,,0.08,Wunderground v.1.15,2014-01-09 12:30:00,
2014-01-09 07:40:00,73.0,70.5,30.19,ESE,112,4.0,7.0,92,0.00,,,0.08,Wunderground v.1.15,2014-01-09 12:40:00,
2014-01-09 07:45:00,73.1,70.6,30.19,NE,56,5.0,7.0,92,0.00,,,0.08,Wunderground v.1.15,2014-01-09 12:45:00,
2014-01-09 07:50:00,73.1,70.6,30.20,SE,142,5.0,5.0,92,0.00,,,0.08,Wunderground v.1.15,2014-01-09 12:50:00,
2014-01-09 07:55:00,73.1,70.6,30.20,East,92,5.0,5.0,92,0.00,,,0.08,Wunderground v.1.15,2014-01-09 12:55:00,
2014-01-09 08:00:00,73.1,70.6,30.20,East,99,4.0,4.0,92,0.00,,,0.08,Wunderground v.1.15,2014-01-09 13:00:00,
2014-01-09 08:10:00,73.2,70.7,30.20,ENE,63,5.0,5.0,92,0.00,,,0.08,Wunderground v.1.15,2014-01-09 13:10:00,
2014-01-09 08:15:00,73.3,70.8,30.20,ESE,108,6.0,6.0,92,0.00,,,0.08,Wunderground v.1.15,2014-01-09 13:15:00,
2014-01-09 08:20:00,73.3,70.8,30.20,ENE,58,5.0,5.0,92,0.00,,,0.08,Wunderground v.1.15,2014-01-09 13:20:00,
2014-01-09 08:30:00,73.4,70.9,30.20,ENE,78,5.0,5.0,92,0.00,,,0.08,Wunderground v.1.15,2014-01-09 13:30:00,
2014-01-09 08:40:00,73.5,71.0,30.21,NE,53,5.0,5.0,92,0.00,,,0.08,Wunderground v.1.15,2014-01-09 13:40:00,
2014-01-09 08:45:00,73.5,71.0,30.21,NE,45,5.0,5.0,92,0.00,,,0.08,Wunderground v.1.15,2014-01-09 13:45:00,
2014-01-09 08:50:00,73.6,71.1,30.21,NE,56,5.0,5.0,92,0.00,,,0.08,Wunderground v.1.15,2014-01-09 13:50:00,
2014-01-09 08:55:00,73.6,71.1,30.22,SE,126,5.0,6.0,92,0.00,,,0.08,Wunderground v.1.15,2014-01-09 13:55:00,
2014-01-09 09:00:00,73.5,71.0,30.22,ENE,61,5.0,5.0,92,0.00,,,0.08,Wunderground v.1.15,2014-01-09 14:00:00,
2014-01-09 09:10:00,73.5,71.4,30.21,NE,49,4.0,15.0,93,0.00,,,0.08,Wunderground v.1.15,2014-01-09 14:10:00,
2014-01-09 09:15:00,73.7,71.5,30.21,NE,53,6.0,15.0,93,0.00,,,0.08,Wunderground v.1.15,2014-01-09 14:15:00,
2014-01-09 09:20:00,73.9,71.7,30.21,ENE,72,6.0,10.0,93,0.00,,,0.08,Wunderground v.1.15,2014-01-09 14:20:00,
2014-01-09 09:30:00,74.1,71.6,30.22,East,93,6.0,7.0,92,0.00,,,0.08,Wunderground v.1.15,2014-01-09 14:30:00,
2014-01-09 09:35:00,74.3,71.8,30.22,ESE,122,5.0,7.0,92,0.00,,,0.08,Wunderground v.1.15,2014-01-09 14:35:00,
2014-01-09 09:40:00,74.3,71.8,30.22,ENE,64,5.0,6.0,92,0.00,,,0.08,Wunderground v.1.15,2014-01-09 14:40:00,
2014-01-09 09:50:00,74.5,72.0,30.23,ESE,117,5.0,8.0,92,0.00,,,0.08,Wunderground v.1.15,2014-01-09 14:50:00,
2014-01-09 10:00:00,74.7,71.9,30.23,SSE,156,6.0,6.0,91,0.00,,,0.08,Wunderground v.1.15,2014-01-09 15:00:00,
2014-01-09 10:10:00,74.6,71.8,30.23,ENE,68,5.0,7.0,91,0.00,,,0.08,Wunderground v.1.15,2014-01-09 15:10:00,
2014-01-09 10:15:00,74.6,71.8,30.23,NNE,27,5.0,7.0,91,0.00,,,0.08,Wunderground v.1.15,2014-01-09 15:15:00,
2014-01-09 10:20:00,74.7,71.9,30.23,SE,125,5.0,5.0,91,0.00,,,0.08,Wunderground v.1.15,2014-01-09 15:20:00,
2014-01-09 10:25:00,74.8,72.0,30.23,East,96,5.0,8.0,91,0.00,,,0.08,Wunderground v.1.15,2014-01-09 15:25:00,
2014-01-09 10:30:00,74.9,72.4,30.23,ENE,73,4.0,5.0,92,0.00,,,0.08,Wunderground v.1.15,2014-01-09 15:30:00,
2014-01-09 10:40:00,75.1,72.6,30.22,NE,53,5.0,6.0,92,0.00,,,0.08,Wunderground v.1.15,2014-01-09 15:40:00,
2014-01-09 10:45:00,75.1,72.3,30.22,NE,50,5.0,7.0,91,0.00,,,0.08,Wunderground v.1.15,2014-01-09 15:45:00,
2014-01-09 10:50:00,75.1,72.3,30.22,East,94,6.0,8.0,91,0.00,,,0.08,Wunderground v.1.15,2014-01-09 15:50:00,
2014-01-09 10:55:00,75.1,72.3,30.21,East,98,5.0,8.0,91,0.00,,,0.08,Wunderground v.1.15,2014-01-09 15:55:00,
2014-01-09 11:00:00,75.2,72.4,30.22,East,98,5.0,7.0,91,0.00,,,0.08,Wunderground v.1.15,2014-01-09 16:00:00,
2014-01-09 11:10:00,75.3,72.5,30.22,ESE,114,4.0,4.0,91,0.00,,,0.08,Wunderground v.1.15,2014-01-09 16:10:00,
2014-01-09 11:15:00,75.1,72.3,30.22,East,96,5.0,5.0,91,0.00,,,0.08,Wunderground v.1.15,2014-01-09 16:15:00,
2014-01-09 11:20:00,75.1,72.3,30.21,NE,56,4.0,4.0,91,0.00,,,0.08,Wunderground v.1.15,2014-01-09 16:20:00,
2014-01-09 11:25:00,74.9,72.4,30.21,East,99,4.0,5.0,92,0.00,,,0.09,Wunderground v.1.15,2014-01-09 16:25:00,
2014-01-09 11:30:00,74.7,72.2,30.21,ENE,63,4.0,4.0,92,0.34,,,0.11,Wunderground v.1.15,2014-01-09 16:30:00,
2014-01-09 11:40:00,74.4,72.2,30.21,SE,128,4.0,7.0,93,0.09,,,0.12,Wunderground v.1.15,2014-01-09 16:40:00,
2014-01-09 11:55:00,74.3,72.1,30.20,NNE,25,4.0,6.0,93,0.00,,,0.12,Wunderground v.1.15,2014-01-09 16:55:00,
2014-01-09 12:20:00,73.6,72.1,30.19,ESE,105,4.0,4.0,95,0.09,,,0.22,Wunderground v.1.15,2014-01-09 17:20:00,
2014-01-09 12:35:00,73.6,72.1,30.17,SE,143,4.0,8.0,95,0.21,,,0.28,Wunderground v.1.15,2014-01-09 17:35:00,
2014-01-09 12:45:00,73.5,72.0,30.17,East,96,4.0,6.0,95,0.06,,,0.29,Wunderground v.1.15,2014-01-09 17:45:00,
2014-01-09 13:15:00,74.0,72.8,30.15,East,101,3.0,4.0,96,0.00,,,0.37,Wunderground v.1.15,2014-01-09 18:15:00,
2014-01-09 13:25:00,74.0,72.8,30.15,ENE,58,2.0,2.0,96,0.00,,,0.37,Wunderground v.1.15,2014-01-09 18:25:00,
2014-01-09 13:30:00,74.1,72.9,30.15,ESE,111,3.0,3.0,96,0.00,,,0.37,Wunderground v.1.15,2014-01-09 18:30:00,
2014-01-09 13:35:00,74.1,72.9,30.15,East,83,3.0,3.0,96,0.00,,,0.37,Wunderground v.1.15,2014-01-09 18:35:00,
2014-01-09 13:40:00,74.1,72.9,30.14,ESE,105,3.0,4.0,96,0.00,,,0.37,Wunderground v.1.15,2014-01-09 18:40:00,
2014-01-09 13:45:00,74.2,73.0,30.14,East,79,2.0,4.0,96,0.00,,,0.37,Wunderground v.1.15,2014-01-09 18:45:00,
2014-01-09 13:55:00,74.2,73.0,30.14,East,101,2.0,4.0,96,0.00,,,0.37,Wunderground v.1.15,2014-01-09 18:55:00,
2014-01-09 14:00:00,74.1,72.9,30.13,East,98,3.0,3.0,96,0.00,,,0.37,Wunderground v.1.15,2014-01-09 19:00:00,
2014-01-09 14:10:00,74.2,73.0,30.13,East,79,3.0,3.0,96,0.00,,,0.38,Wunderground v.1.15,2014-01-09 19:10:00,
2014-01-09 14:25:00,74.6,73.1,30.13,SSW,195,2.0,3.0,95,0.00,,,0.38,Wunderground v.1.15,2014-01-09 19:25:00,
2014-01-09 15:10:00,75.3,73.5,30.13,ESE,108,2.0,2.0,94,0.00,,,0.38,Wunderground v.1.15,2014-01-09 20:10:00,
2014-01-09 15:25:00,75.5,73.7,30.12,SW,218,2.0,3.0,94,0.00,,,0.38,Wunderground v.1.15,2014-01-09 20:25:00,
2014-01-09 16:10:00,75.8,73.6,30.13,ENE,72,1.0,1.0,93,0.00,,,0.39,Wunderground v.1.15,2014-01-09 21:10:00,
2014-01-09 16:15:00,75.9,73.7,30.13,SSW,198,1.0,1.0,93,0.00,,,0.39,Wunderground v.1.15,2014-01-09 21:15:00,
2014-01-09 16:30:00,75.8,73.3,30.12,ENE,72,2.0,2.0,92,0.00,,,0.39,Wunderground v.1.15,2014-01-09 21:30:00,
2014-01-09 16:40:00,75.8,73.3,30.12,ESE,120,1.0,3.0,92,0.00,,,0.39,Wunderground v.1.15,2014-01-09 21:40:00,
2014-01-09 16:55:00,75.8,73.3,30.12,ESE,123,2.0,3.0,92,0.00,,,0.39,Wunderground v.1.15,2014-01-09 21:55:00,
2014-01-09 17:00:00,75.8,73.3,30.12,WSW,243,2.0,2.0,92,0.00,,,0.39,Wunderground v.1.15,2014-01-09 22:00:00,
2014-01-09 17:10:00,75.8,73.3,30.13,SSW,198,1.0,3.0,92,0.00,,,0.39,Wunderground v.1.15,2014-01-09 22:10:00,
2014-01-09 17:25:00,75.6,73.1,30.13,East,81,1.0,2.0,92,0.00,,,0.39,Wunderground v.1.15,2014-01-09 22:25:00,
2014-01-09 17:30:00,75.6,73.1,30.13,SSW,209,1.0,1.0,92,0.00,,,0.39,Wunderground v.1.15,2014-01-09 22:30:00,
2014-01-09 17:50:00,75.4,72.9,30.13,SSW,198,1.0,1.0,92,0.00,,,0.39,Wunderground v.1.15,2014-01-09 22:50:00,
2014-01-09 17:55:00,75.4,72.9,30.13,SSE,152,1.0,1.0,92,0.00,,,0.39,Wunderground v.1.15,2014-01-09 22:55:00,
2014-01-09 19:25:00,75.7,73.2,30.15,SSW,212,1.0,2.0,92,0.00,,,0.39,Wunderground v.1.15,2014-01-10 00:25:00,
2014-01-09 19:30:00,75.7,73.2,30.15,SSE,155,1.0,2.0,92,0.00,,,0.39,Wunderground v.1.15,2014-01-10 00:30:00,
2014-01-09 19:35:00,75.7,73.2,30.15,South,191,1.0,2.0,92,0.00,,,0.39,Wunderground v.1.15,2014-01-10 00:35:00,
2014-01-09 19:40:00,75.7,73.2,30.15,SSE,148,1.0,1.0,92,0.00,,,0.39,Wunderground v.1.15,2014-01-10 00:40:00,
2014-01-09 19:45:00,75.7,73.2,30.15,South,183,1.0,5.0,92,0.00,,,0.39,Wunderground v.1.15,2014-01-10 00:45:00,
2014-01-09 19:55:00,75.8,73.0,30.16,ESE,107,1.0,1.0,91,0.00,,,0.39,Wunderground v.1.15,2014-01-10 00:55:00,
2014-01-09 20:00:00,75.8,73.0,30.16,SSW,204,1.0,1.0,91,0.00,,,0.39,Wunderground v.1.15,2014-01-10 01:00:00,
2014-01-09 20:10:00,75.8,73.0,30.16,South,190,1.0,1.0,91,0.00,,,0.39,Wunderground v.1.15,2014-01-10 01:10:00,
2014-01-09 20:15:00,75.9,73.1,30.17,SSW,212,2.0,4.0,91,0.00,,,0.39,Wunderground v.1.15,2014-01-10 01:15:00,
2014-01-09 20:20:00,76.0,73.2,30.17,SSW,194,2.0,2.0,91,0.00,,,0.39,Wunderground v.1.15,2014-01-10 01:20:00,
2014-01-09 20:25:00,76.0,73.2,30.17,ENE,67,2.0,2.0,91,0.00,,,0.39,Wunderground v.1.15,2014-01-10 01:25:00,
2014-01-09 20:30:00,75.9,73.1,30.17,SSW,195,1.0,1.0,91,0.00,,,0.39,Wunderground v.1.15,2014-01-10 01:30:00,
2014-01-09 20:35:00,75.8,73.0,30.17,SSE,167,1.0,2.0,91,0.00,,,0.39,Wunderground v.1.15,2014-01-10 01:35:00,
2014-01-09 20:45:00,75.8,73.0,30.18,SW,214,2.0,4.0,91,0.00,,,0.39,Wunderground v.1.15,2014-01-10 01:45:00,
2014-01-09 20:50:00,75.8,73.0,30.18,SE,139,2.0,2.0,91,0.00,,,0.39,Wunderground v.1.15,2014-01-10 01:50:00,
2014-01-09 20:55:00,75.7,72.9,30.18,SE,126,1.0,2.0,91,0.00,,,0.39,Wunderground v.1.15,2014-01-10 01:55:00,
2014-01-09 21:00:00,75.7,72.9,30.18,ESE,123,1.0,2.0,91,0.00,,,0.39,Wunderground v.1.15,2014-01-10 02:00:00,
2014-01-09 21:10:00,75.8,73.0,30.18,SE,143,2.0,2.0,91,0.00,,,0.39,Wunderground v.1.15,2014-01-10 02:10:00,
2014-01-09 21:15:00,75.8,72.7,30.18,SE,125,2.0,2.0,90,0.00,,,0.39,Wunderground v.1.15,2014-01-10 02:15:00,
2014-01-09 21:20:00,75.9,72.8,30.18,SW,233,2.0,5.0,90,0.00,,,0.39,Wunderground v.1.15,2014-01-10 02:20:00,
2014-01-09 21:25:00,75.9,72.8,30.18,ESE,117,2.0,5.0,90,0.00,,,0.39,Wunderground v.1.15,2014-01-10 02:25:00,
2014-01-09 21:30:00,75.9,72.8,30.18,SSW,196,1.0,1.0,90,0.00,,,0.39,Wunderground v.1.15,2014-01-10 02:30:00,
2014-01-09 21:35:00,75.9,72.8,30.18,SE,135,1.0,2.0,90,0.00,,,0.39,Wunderground v.1.15,2014-01-10 02:35:00,
2014-01-09 21:45:00,75.9,72.8,30.18,SSW,207,2.0,6.0,90,0.00,,,0.39,Wunderground v.1.15,2014-01-10 02:45:00,
2014-01-09 21:50:00,75.9,72.8,30.19,SSW,201,2.0,2.0,90,0.00,,,0.39,Wunderground v.1.15,2014-01-10 02:50:00,
2014-01-09 21:55:00,75.9,72.8,30.18,WSW,254,2.0,2.0,90,0.00,,,0.39,Wunderground v.1.15,2014-01-10 02:55:00,
2014-01-09 22:00:00,75.9,72.8,30.18,East,82,1.0,1.0,90,0.00,,,0.39,Wunderground v.1.15,2014-01-10 03:00:00,
2014-01-09 22:10:00,76.0,72.9,30.18,SSE,166,3.0,3.0,90,0.00,,,0.39,Wunderground v.1.15,2014-01-10 03:10:00,
2014-01-09 22:15:00,76.1,73.0,30.18,SSE,158,3.0,3.0,90,0.00,,,0.39,Wunderground v.1.15,2014-01-10 03:15:00,
2014-01-09 22:20:00,76.1,73.0,30.18,SW,235,3.0,3.0,90,0.00,,,0.39,Wunderground v.1.15,2014-01-10 03:20:00,
2014-01-09 22:25:00,76.2,73.1,30.18,SSW,196,3.0,3.0,90,0.00,,,0.39,Wunderground v.1.15,2014-01-10 03:25:00,
2014-01-09 22:35:00,76.1,73.0,30.17,SW,224,3.0,6.0,90,0.00,,,0.39,Wunderground v.1.15,2014-01-10 03:35:00,
2014-01-09 22:40:00,76.1,73.0,30.17,WSW,243,3.0,3.0,90,0.00,,,0.39,Wunderground v.1.15,2014-01-10 03:40:00,
2014-01-09 22:45:00,76.0,72.5,30.17,South,179,3.0,4.0,89,0.00,,,0.39,Wunderground v.1.15,2014-01-10 03:45:00,
2014-01-09 22:50:00,76.1,72.6,30.17,SSE,168,3.0,3.0,89,0.00,,,0.39,Wunderground v.1.15,2014-01-10 03:50:00,
2014-01-09 23:00:00,76.0,72.5,30.17,ESE,117,2.0,2.0,89,0.00,,,0.39,Wunderground v.1.15,2014-01-10 04:00:00,
2014-01-09 23:10:00,76.0,72.5,30.17,SW,226,4.0,5.0,89,0.00,,,0.39,Wunderground v.1.15,2014-01-10 04:10:00,
2014-01-09 23:20:00,76.1,72.6,30.17,South,188,3.0,3.0,89,0.00,,,0.39,Wunderground v.1.15,2014-01-10 04:20:00,
2014-01-09 23:25:00,76.1,72.3,30.16,South,191,5.0,5.0,88,0.00,,,0.39,Wunderground v.1.15,2014-01-10 04:25:00,
2014-01-09 23:30:00,76.0,72.2,30.17,SW,226,4.0,11.0,88,0.00,,,0.39,Wunderground v.1.15,2014-01-10 04:30:00,
2014-01-09 23:35:00,76.1,71.9,30.17,South,186,5.0,11.0,87,0.00,,,0.39,Wunderground v.1.15,2014-01-10 04:35:00,
2014-01-09 23:40:00,76.3,72.5,30.16,South,188,6.0,6.0,88,0.00,,,0.39,Wunderground v.1.15,2014-01-10 04:40:00,
2014-01-09 23:45:00,76.3,72.1,30.16,SE,134,6.0,6.0,87,0.00,,,0.39,Wunderground v.1.15,2014-01-10 04:45:00,
2014-01-09 23:50:00,76.3,72.1,30.16,SW,222,7.0,8.0,87,0.00,,,0.39,Wunderground v.1.15,2014-01-10 04:50:00,
2014-01-09 23:55:00,76.3,72.5,30.16,SSW,195,7.0,8.0,88,0.00,,,0.39,Wunderground v.1.15,2014-01-10 04:55:00,